Date String (YYYY-MM-DD hh:mm:ss) UTC,Instrument flags,Ambient pressure (hPa),Sample flow (lpm),Bypass flow (lpm),Sample temperature (°C),Ambient temperature (°C),ASC tube jacket temperature (°C),LED temperature (°C),Box temperature (°C),Sample RH (%),Span deviation,Mass concentration (μg/m³),Mass concentration (μg/m³),Mass concentration (μg/m³)
DateTimeUTC,F1_M11,P_M11,Q1_M11,Q2_M11,T1_M11,T2_M11,T3_M11,T4_M11,T5_M11,U1_M11,ZSPAN_M11,X0_M11,X2_M11,X1_M11
2022-05-01 03:00:00,,0825.4,5.00,0.00,28.3,27.6,00.0,37.2,30.1,09.1,0000.0,0011.43,0003.56,0002.51
2022-05-01 03:01:00,,0825.4,5.01,0.00,28.3,27.6,00.0,37.2,30.1,09.1,0000.0,0012.20,0003.57,0002.52
2022-05-01 03:02:00,,0825.4,5.01,0.00,28.3,27.6,00.0,37.2,30.1,09.0,0000.0,0012.23,0003.60,0002.53
2022-05-01 03:03:00,,0825.5,5.02,0.00,28.4,27.6,00.0,37.2,30.2,09.0,0000.0,0012.64,0003.60,0002.54
2022-05-01 03:04:00,,0825.5,5.00,0.00,28.4,27.6,00.0,37.2,30.1,09.0,0000.0,0012.64,0003.58,0002.53
2022-05-01 03:05:00,,0825.5,5.00,0.00,28.4,27.6,00.0,37.2,30.2,09.0,0000.0,0012.46,0003.59,0002.54
2022-05-01 03:06:00,,0825.5,4.99,0.00,28.4,27.7,00.0,37.2,30.2,08.9,0000.0,0012.53,0003.61,0002.57
2022-05-01 03:07:00,,0825.6,5.00,0.00,28.4,27.7,00.0,37.2,30.2,08.9,0000.0,0012.84,0003.62,0002.59
2022-05-01 03:08:00,,0825.6,5.00,0.00,28.4,27.7,00.0,37.2,30.2,08.9,0000.0,0012.94,0003.64,0002.58
2022-05-01 03:09:00,,0825.6,5.01,0.00,28.4,27.7,00.0,37.2,30.2,08.9,0000.0,0012.55,0003.65,0002.58
2022-05-01 03:10:00,,0825.6,5.00,0.00,28.4,27.7,00.0,37.2,30.2,08.9,0000.0,0011.28,0003.63,0002.60
2022-05-01 03:11:00,,0825.7,4.99,0.00,28.4,27.7,00.0,37.2,30.2,08.9,0000.0,0011.16,0003.67,0002.63
2022-05-01 03:12:00,,0825.7,5.02,0.00,28.4,27.7,00.0,37.3,30.2,08.8,0000.0,0010.69,0003.69,0002.66
2022-05-01 03:13:00,,0825.7,5.00,0.00,28.4,27.7,00.0,37.3,30.2,08.8,0000.0,0010.16,0003.66,0002.66
2022-05-01 03:14:00,,0825.8,4.99,0.00,28.4,27.7,00.0,37.3,30.2,08.8,0000.0,0009.48,0003.65,0002.67
2022-05-01 03:15:00,,0825.8,5.00,0.00,28.4,27.7,00.0,37.3,30.2,08.8,0000.0,0009.76,0003.66,0002.67
2022-05-01 03:16:00,,0825.9,5.00,0.00,28.4,27.7,00.0,37.3,30.2,08.8,0000.0,0011.33,0003.69,0002.69
2022-05-01 03:17:00,,0825.9,5.00,0.00,28.4,27.7,00.0,37.3,30.2,08.8,0000.0,0011.56,0003.69,0002.68
2022-05-01 03:18:00,,0825.9,5.00,0.00,28.4,27.7,00.0,37.3,30.2,08.8,0000.0,0011.96,0003.69,0002.68
2022-05-01 03:19:00,,0825.9,5.00,0.00,28.4,27.7,00.0,37.3,30.2,08.8,0000.0,0012.34,0003.72,0002.69
2022-05-01 03:20:00,,0825.9,5.00,0.00,28.4,27.7,00.0,37.3,30.2,08.8,0000.0,0012.18,0003.78,0002.70
2022-05-01 03:21:00,,0825.9,5.00,0.00,28.4,27.7,00.0,37.3,30.2,08.8,0000.0,0012.54,0003.80,0002.71
2022-05-01 03:22:00,,0825.9,5.00,0.00,28.4,27.7,00.0,37.3,30.2,08.8,0000.0,0012.50,0003.81,0002.71
2022-05-01 03:23:00,,0825.9,5.01,0.00,28.4,27.7,00.0,37.3,30.2,08.8,0000.0,0012.93,0003.80,0002.71
2022-05-01 03:24:00,,0825.9,5.00,0.00,28.5,27.7,00.0,37.3,30.2,08.9,0000.0,0013.53,0003.84,0002.71
2022-05-01 03:25:00,,0826.0,5.00,0.00,28.5,27.7,00.0,37.3,30.2,08.9,0000.0,0013.55,0003.84,0002.72
2022-05-01 03:26:00,,0826.0,4.99,0.00,28.5,27.7,00.0,37.3,30.2,09.0,0000.0,0013.77,0003.89,0002.76
2022-05-01 03:27:00,,0826.0,5.02,0.00,28.5,27.7,00.0,37.3,30.2,09.0,0000.0,0013.09,0003.88,0002.78
2022-05-01 03:28:00,,0826.0,5.00,0.00,28.4,27.7,00.0,37.3,30.2,09.0,0000.0,0013.50,0003.93,0002.80
2022-05-01 03:29:00,,0826.0,5.00,0.00,28.4,27.7,00.0,37.3,30.2,09.1,0000.0,0013.66,0003.95,0002.80
2022-05-01 03:30:00,,0826.1,5.00,0.00,28.4,27.6,00.0,37.4,30.2,09.1,0000.0,0012.83,0003.96,0002.83
2022-05-01 03:31:00,,0826.1,5.02,0.00,28.4,27.6,00.0,37.4,30.2,09.1,0000.0,0013.06,0003.96,0002.82
2022-05-01 03:32:00,,0826.0,5.00,0.00,28.4,27.6,00.0,37.4,30.2,09.1,0000.0,0013.30,0004.01,0002.84
2022-05-01 03:33:00,,0826.1,5.00,0.00,28.4,27.6,00.0,37.4,30.2,09.1,0000.0,0012.99,0004.00,0002.85
2022-05-01 03:34:00,,0826.2,5.02,0.00,28.4,27.6,00.0,37.4,30.2,09.1,0000.0,0012.73,0004.02,0002.88
2022-05-01 03:35:00,,0826.1,4.99,0.00,28.4,27.6,00.0,37.4,30.2,09.2,0000.0,0012.22,0004.02,0002.90
2022-05-01 03:36:00,,0826.1,4.99,0.00,28.4,27.6,00.0,37.4,30.2,09.2,0000.0,0013.10,0004.06,0002.94
2022-05-01 03:37:00,,0826.1,4.99,0.00,28.4,27.6,00.0,37.3,30.2,09.1,0000.0,0013.28,0004.13,0002.97
2022-05-01 03:38:00,,0826.1,5.01,0.00,28.4,27.6,00.0,37.3,30.2,09.2,0000.0,0012.74,0004.14,0002.98
2022-05-01 03:39:00,,0826.2,4.99,0.00,28.4,27.6,00.0,37.3,30.2,09.2,0000.0,0012.03,0004.12,0003.00
2022-05-01 03:40:00,,0826.2,5.00,0.00,28.4,27.6,00.0,37.3,30.2,09.1,0000.0,0011.60,0004.15,0003.04
2022-05-01 03:41:00,,0826.2,5.00,0.00,28.4,27.6,00.0,37.3,30.2,09.1,0000.0,0011.57,0004.21,0003.06
2022-05-01 03:42:00,,0826.2,5.01,0.00,28.4,27.6,00.0,37.3,30.2,09.1,0000.0,0011.56,0004.21,0003.07
2022-05-01 03:43:00,,0826.2,5.00,0.00,28.4,27.6,00.0,37.3,30.2,09.1,0000.0,0011.03,0004.18,0003.07
2022-05-01 03:44:00,,0826.3,4.99,0.00,28.4,27.6,00.0,37.3,30.2,09.1,0000.0,0011.68,0004.20,0003.08
2022-05-01 03:45:00,,0826.3,5.00,0.00,28.4,27.6,00.0,37.3,30.2,09.1,0000.0,0012.12,0004.23,0003.06
2022-05-01 03:46:00,,0826.3,5.01,0.00,28.4,27.6,00.0,37.3,30.2,09.1,0000.0,0012.35,0004.24,0003.05
2022-05-01 03:47:00,,0826.3,5.00,0.00,28.4,27.6,00.0,37.3,30.2,09.1,0000.0,0011.33,0004.25,0003.02
2022-05-01 03:48:00,,0826.4,4.99,0.00,28.4,27.6,00.0,37.3,30.2,09.1,0000.0,0011.11,0004.20,0002.98
2022-05-01 03:49:00,,0826.4,4.99,0.00,28.4,27.6,00.0,37.3,30.2,09.1,0000.0,0011.51,0004.23,0002.96
2022-05-01 03:50:00,,0826.5,5.01,0.00,28.4,27.7,00.0,37.3,30.2,09.1,0000.0,0011.68,0004.20,0002.94
2022-05-01 03:51:00,,0826.5,5.00,0.00,28.5,27.7,00.0,37.3,30.3,09.1,0000.0,0011.79,0004.17,0002.90
2022-05-01 03:52:00,,0826.5,4.99,0.00,28.5,27.7,00.0,37.4,30.3,09.1,0000.0,0012.01,0004.15,0002.89
2022-05-01 03:53:00,,0826.5,5.03,0.00,28.5,27.7,00.0,37.4,30.3,09.0,0000.0,0012.05,0004.21,0002.90
2022-05-01 03:54:00,,0826.5,4.99,0.00,28.5,27.7,00.0,37.4,30.3,09.1,0000.0,0012.56,0004.23,0002.92
2022-05-01 03:55:00,,0826.5,4.99,0.00,28.5,27.7,00.0,37.4,30.3,09.0,0000.0,0013.03,0004.23,0002.93
2022-05-01 03:56:00,,0826.5,5.01,0.00,28.5,27.7,00.0,37.4,30.3,09.0,0000.0,0012.68,0004.21,0002.94
2022-05-01 03:57:00,,0826.5,5.01,0.00,28.5,27.7,00.0,37.4,30.3,09.1,0000.0,0012.51,0004.27,0002.96
2022-05-01 03:58:00,,0826.5,4.99,0.00,28.5,27.7,00.0,37.4,30.2,09.1,0000.0,0012.88,0004.27,0002.96
2022-05-01 03:59:00,,0826.5,4.99,0.00,28.5,27.6,00.0,37.4,30.3,09.0,0000.0,0013.47,0004.30,0002.98
